Wetbulb
76.87 76.49 75.04 71.74 60.96 59.85 55.29 55.95 60.62 59.69 60.05 62.78 64.10 62.37 60.39 60.72 58.85 55.83 67.31 69.53 72.68 72.74 74.46 75.14 76.78 76.64 76.48 76.97 77.55 77.72 77.59 77.38 77.76 77.58 77.05 76.60 76.71 76.68 76.63 76.49 76.30 76.13 76.14 76.27 76.39 76.15 75.98 76.17 75.87
75.91 74.92 73.92 67.93 57.54 53.26 55.29 59.03 58.67 60.54 61.25 63.86 63.16 62.65 60.91 58.54 64.16 64.59 67.33 70.91 73.49 73.58 74.62 75.04 76.46 77.19 76.39 76.77 77.41 77.65 76.64 76.58 76.63 76.63 76.82 76.88 76.79 76.88 76.71 76.39 76.28 76.11 75.69 76.49 76.51 76.04 76.37 76.15 76.06
75.39 74.88 69.16 63.63 57.73 53.31 54.80 59.18 60.16 62.04 64.09 62.71 60.24 63.03 61.96 60.90 64.85 65.66 69.22 72.02 73.57 73.86 74.41 75.05 77.06 77.45 76.49 76.38 76.68 77.31 76.83 76.66 76.63 76.60 76.71 76.50 76.69 76.85 76.20 76.17 75.97 76.05 75.51 76.02 76.70 75.95 75.95 75.65 75.81
73.71 72.77 70.06 59.18 55.30 57.57 58.03 60.76 61.43 61.12 62.37 64.07 63.14 59.73 63.57 66.61 65.58 68.09 70.78 72.62 73.34 74.02 74.46 76.31 77.00 76.54 76.58 76.55 76.52 76.75 76.63 76.74 76.63 76.60 76.52 76.50 76.45 76.50 76.14 76.22 76.06 75.89 75.42 76.38 76.45 75.76 76.12 75.84 75.48
73.79 70.46 60.67 57.56 56.84 58.85 60.91 62.00 62.32 60.51 61.09 62.14 61.62 58.87 61.33 65.70 69.04 70.02 70.74 71.93 72.50 73.61 74.77 75.78 77.35 77.58 77.25 77.56 77.40 76.98 76.60 76.38 76.46 76.46 76.30 76.55 76.69 76.45 76.12 76.39 76.17 76.36 75.53 76.30 76.42 76.50 76.22 75.86 75.07
67.86 68.41 58.64 55.66 56.83 59.58 61.29 62.60 62.16 60.80 61.40 61.89 60.85 61.40 61.69 67.34 68.24 69.41 70.80 71.27 72.97 73.15 74.63 75.08 77.07 77.68 77.74 77.34 77.29 76.96 77.24 76.85 76.98 76.84 76.55 76.55 76.66 76.46 76.17 76.01 76.09 76.03 76.50 76.30 76.14 76.06 75.86 75.51 75.01
65.65 64.09 58.04 57.98 57.26 58.42 60.65 63.83 61.30 60.13 60.62 60.86 64.51 60.07 63.99 65.10 67.36 69.23 70.55 71.53 72.38 73.59 74.62 75.74 76.04 77.23 77.48 77.24 76.91 76.52 76.50 76.66 76.50 76.44 76.74 76.30 76.30 76.16 76.11 76.01 76.25 76.00 76.48 76.50 76.33 75.91 75.72 75.41 74.79
69.36 65.83 58.98 59.50 58.06 57.99 62.70 63.26 64.24 60.92 60.42 65.27 65.71 60.07 60.93 65.25 67.33 68.91 70.01 72.02 72.96 73.78 74.74 76.42 76.09 76.71 76.80 76.61 77.02 76.86 77.09 76.58 76.58 76.66 76.39 76.52 76.66 76.58 76.61 76.20 76.30 76.43 76.34 76.83 75.62 75.67 75.77 75.38 74.73
71.21 62.50 58.37 58.08 59.33 60.92 63.88 61.87 62.97 64.43 62.55 63.20 63.81 64.79 66.51 67.99 68.36 68.68 69.69 71.16 72.17 73.24 74.54 75.51 75.04 76.30 76.67 77.60 76.85 77.20 76.81 76.52 76.16 76.40 76.44 76.78 77.51 77.05 76.39 76.25 76.19 75.81 76.16 76.48 76.50 75.56 75.66 75.17 75.09
66.57 61.36 59.54 63.45 63.67 62.67 63.48 63.04 62.04 61.54 61.51 61.92 61.89 65.08 67.08 68.35 68.22 67.80 68.11 69.10 70.83 71.44 73.76 74.78 75.18 75.51 76.34 75.82 77.15 77.68 77.35 76.68 77.32 77.53 77.48 78.35 76.61 77.21 75.89 76.20 76.43 76.19 76.00 76.39 76.44 75.95 75.75 75.01 75.40
64.07 61.93 63.54 64.07 64.80 65.66 64.00 62.59 63.46 61.21 59.85 62.42 61.22 63.60 66.14 67.15 67.94 68.49 69.24 70.07 70.89 71.97 72.68 74.37 75.28 76.31 76.23 75.83 76.43 76.68 76.44 76.57 76.81 77.12 76.97 76.70 75.83 75.92 75.57 76.08 76.22 78.03 76.45 77.15 76.63 75.39 75.65 75.08 74.61
60.90 64.35 64.74 64.87 65.72 64.96 64.00 64.81 62.32 61.89 62.68 64.76 64.44 65.71 66.43 66.58 67.40 67.97 68.66 69.84 70.99 72.25 72.83 73.70 75.11 75.54 75.58 75.93 75.81 75.98 75.84 76.23 75.65 75.85 76.14 76.11 75.13 74.92 74.39 75.39 76.31 76.06 77.27 76.56 76.70 76.08 74.89 75.05 75.43
62.15 63.35 65.13 64.90 65.02 65.53 65.98 64.15 64.00 62.34 65.63 64.93 65.10 65.50 65.64 66.52 66.70 68.19 69.30 70.40 71.65 71.98 73.02 73.84 74.51 75.43 76.04 76.05 75.53 75.37 75.57 75.23 75.52 75.57 75.75 75.87 75.01 74.61 74.29 75.51 75.48 75.13 74.50 75.24 75.24 74.54 74.42 75.01 74.76
63.64 63.92 63.64 64.13 63.73 65.02 64.21 64.38 64.86 65.73 65.91 64.18 64.07 63.99 65.15 65.51 66.28 68.15 69.43 70.16 71.09 72.21 72.84 73.77 74.09 75.29 75.46 75.57 75.86 74.94 75.31 75.12 75.35 75.08 75.42 76.04 75.56 74.25 74.92 75.46 75.19 74.24 75.07 74.99 75.27 75.09 73.07 69.60 70.70
65.02 61.40 62.38 62.90 64.35 64.05 64.09 61.36 62.61 66.02 65.98 63.69 63.64 64.24 64.53 65.48 66.96 68.07 69.63 70.26 71.25 72.03 73.05 73.15 73.28 74.10 74.94 75.43 75.67 75.01 74.69 74.74 74.40 74.89 76.02 76.41 76.28 73.25 75.73 75.43 75.76 74.93 75.50 75.48 75.40 72.90 73.16 74.12 73.39
61.06 60.65 57.24 60.93 63.80 64.55 63.50 58.41 63.36 65.87 64.91 63.82 63.88 63.76 63.99 65.41 67.11 68.79 70.05 70.75 71.62 72.09 72.48 73.07 72.27 72.43 73.83 74.40 75.17 75.31 75.20 74.45 75.07 75.83 76.26 76.44 76.65 76.34 75.66 76.03 75.40 75.13 75.13 74.83 74.84 74.53 74.37 74.46 74.01
57.59 53.27 54.47 57.17 62.88 62.44 62.04 59.94 63.08 64.86 64.79 63.46 63.50 63.83 64.12 64.95 66.61 68.52 69.85 70.91 71.49 71.81 72.43 72.77 73.42 72.50 73.27 74.48 74.87 75.62 76.27 75.77 75.40 76.06 76.54 76.76 76.32 76.25 75.63 74.81 74.56 75.45 74.64 74.34 74.62 74.34 74.36 73.61 73.35
51.41 52.34 53.26 54.50 59.20 61.96 60.29 60.42 62.46 63.92 64.03 63.75 63.60 64.13 64.38 64.70 65.62 67.77 69.65 70.82 71.51 72.12 72.50 73.05 73.31 73.96 74.56 74.87 75.23 75.25 75.41 75.56 75.70 75.58 75.92 75.96 76.25 76.06 75.98 74.84 75.10 75.27 74.26 73.96 73.74 73.84 73.78 74.31 75.29
54.92 53.68 52.84 54.55 58.07 60.04 59.67 60.17 62.35 63.54 63.53 63.30 63.73 63.92 64.49 65.15 67.28 68.56 69.47 70.71 71.23 71.98 72.18 72.57 72.62 73.93 73.90 73.49 73.37 73.67 73.41 74.47 75.01 75.43 75.45 75.76 75.51 76.53 75.96 74.95 74.56 74.63 74.07 74.17 74.67 74.27 73.96 74.56 76.20
52.73 51.94 52.38 54.50 59.51 59.61 59.22 59.20 61.85 63.33 63.34 64.18 64.00 64.04 64.65 65.81 66.66 67.92 68.74 69.66 70.44 71.39 71.93 72.21 72.84 73.93 73.60 73.71 74.33 74.55 74.53 74.96 75.01 74.56 76.20 76.00 75.21 76.67 76.36 76.24 75.31 74.90 74.31 74.92 75.11 75.13 74.21 74.59 75.34
52.80 51.66 51.87 51.60 57.15 60.40 58.45 56.35 58.16 62.05 64.25 64.46 64.95 65.70 65.87 65.51 65.70 66.98 67.92 68.75 69.98 70.72 71.43 72.04 73.05 73.79 73.77 74.84 74.42 74.78 75.16 75.12 73.90 74.47 74.94 75.36 75.80 76.53 76.84 76.33 76.21 75.79 75.60 74.43 75.29 75.69 75.15 72.67 74.50
50.47 52.77 52.31 53.30 54.40 50.53 56.67 50.14 57.50 59.41 61.00 63.06 63.52 64.69 65.65 65.95 66.62 67.19 67.53 68.28 69.23 70.60 71.94 72.39 72.95 73.65 73.50 74.50 74.78 74.63 73.08 72.75 74.07 77.10 74.48 73.57 76.22 76.58 77.09 76.94 76.50 76.40 75.20 74.92 75.90 76.26 76.05 74.15 72.28
51.32 54.65 54.89 55.12 54.39 53.50 53.73 52.16 54.41 55.46 56.88 58.69 63.99 64.31 65.52 66.74 67.03 66.79 67.51 68.44 69.57 70.53 71.02 71.62 72.77 73.35 74.59 74.85 75.44 73.89 74.25 74.15 74.79 74.51 75.15 74.27 74.78 76.72 76.99 77.15 76.83 76.70 76.12 76.42 76.15 75.84 75.54 74.42 73.21
50.98 49.96 48.90 51.26 54.18 47.92 50.34 51.56 50.27 52.08 54.47 56.89 61.68 65.36 65.23 66.18 67.05 68.08 68.70 69.10 69.35 70.37 70.59 71.06 71.81 73.48 74.42 74.02 74.74 75.34 75.17 74.25 73.32 74.12 73.85 73.35 73.58 75.48 77.17 77.22 77.09 76.57 76.19 76.11 75.64 75.94 75.46 74.49 73.70
49.57 48.02 45.64 45.36 45.10 43.93 47.79 48.46 50.89 52.90 54.53 57.34 60.59 62.89 65.72 66.57 66.71 67.31 67.86 68.18 68.94 69.00 69.56 70.39 71.60 73.00 74.17 73.75 74.19 74.92 75.62 75.16 74.49 74.78 74.13 74.18 73.36 73.65 75.90 77.11 76.92 76.30 76.71 76.50 76.06 75.82 74.93 73.82 72.61
48.26 47.71 45.81 41.62 42.22 44.87 45.46 45.64 50.12 53.64 55.18 58.73 60.83 64.78 65.65 66.20 67.28 67.47 68.10 68.52 68.76 69.14 69.86 71.12 71.78 72.91 72.81 73.46 74.76 75.37 75.83 74.08 74.14 75.17 74.51 74.23 73.96 74.51 76.45 76.95 76.94 77.13 76.77 76.29 75.96 74.64 73.57 72.62 71.66
47.69 47.19 46.21 43.40 42.14 43.79 45.94 48.90 53.35 56.14 59.79 60.21 58.73 64.38 65.22 66.08 66.99 67.49 68.43 68.69 69.04 69.83 70.35 71.64 72.79 73.32 73.30 73.31 74.66 74.39 74.82 74.90 74.80 75.98 75.51 74.85 75.39 75.13 76.55 76.89 76.47 76.54 76.24 75.90 75.13 73.41 72.42 71.30 69.42
50.43 48.08 45.61 45.81 42.44 41.26 45.72 47.58 49.81 54.11 57.96 59.95 62.35 62.48 64.73 66.45 67.16 67.82 68.51 68.82 69.39 70.21 71.10 71.42 72.31 72.87 73.18 72.91 73.48 73.89 74.12 74.74 74.95 75.36 75.28 75.67 75.56 75.44 75.77 76.21 76.28 76.13 75.99 75.28 74.51 73.00 72.08 69.75 67.51
51.00 50.27 45.41 45.85 44.21 43.85 42.97 47.94 53.15 57.43 59.06 61.04 64.28 65.54 66.42 65.45 66.99 67.83 68.19 69.04 69.73 70.53 70.51 70.49 71.53 71.71 72.07 72.90 73.74 74.27 74.13 74.22 74.71 74.63 75.42 75.85 76.04 75.61 75.45 75.89 75.75 75.86 75.31 74.78 73.59 72.79 71.11 68.94 67.25
49.96 48.87 48.74 48.35 46.28 44.53 45.43 48.51 59.78 60.61 62.63 63.67 64.29 65.51 67.17 68.62 67.89 67.49 68.26 68.64 69.33 70.14 70.75 70.51 71.16 71.62 71.62 73.19 74.21 73.66 74.13 74.40 74.02 74.32 75.07 75.90 75.50 75.63 75.49 75.59 75.41 75.42 75.04 74.48 72.92 71.76 70.31 68.40 66.47
MSLP
1010.40 1010.46 1010.76 1010.94 1011.12 1010.21 1010.08 1010.40 1010.46 1011.03 1011.61 1012.22 1012.82 1013.25 1014.31 1014.83 1014.92 1015.70 1015.89 1015.81 1015.67 1015.93 1015.96 1016.17 1016.19 1016.25 1016.41 1016.60 1016.78 1016.79 1017.02 1017.30 1017.43 1017.58 1017.98 1018.19 1018.27 1018.20 1018.27 1018.42 1018.53 1018.47 1018.38 1018.45 1018.38 1018.32 1018.34 1018.45 1018.71
1010.23 1010.60 1010.68 1010.49 1010.30 1009.59 1010.06 1010.19 1010.27 1011.02 1012.06 1012.51 1013.25 1013.98 1014.48 1015.11 1015.31 1015.70 1015.67 1015.82 1015.63 1015.70 1015.80 1016.24 1016.50 1016.64 1016.63 1016.85 1016.90 1017.01 1017.40 1017.56 1017.71 1017.82 1018.26 1018.41 1018.45 1018.33 1018.49 1018.60 1018.57 1018.59 1018.59 1018.60 1018.55 1018.49 1018.54 1018.64 1018.94
1010.44 1010.45 1010.25 1009.81 1009.68 1009.41 1009.59 1009.90 1010.25 1010.97 1011.62 1012.50 1013.53 1014.38 1014.77 1015.37 1015.58 1015.65 1015.65 1015.90 1015.90 1015.87 1016.05 1016.32 1016.60 1016.82 1016.90 1017.04 1017.15 1017.28 1017.55 1017.70 1017.85 1018.00 1018.32 1018.69 1018.75 1018.72 1018.75 1018.75 1018.71 1018.81 1018.95 1018.93 1018.73 1018.79 1018.82 1018.90 1019.11
1010.30 1010.33 1010.03 1009.50 1009.22 1009.45 1009.33 1009.69 1010.13 1010.67 1011.33 1012.11 1012.87 1014.37 1015.05 1015.40 1015.64 1015.58 1015.83 1015.81 1015.95 1015.97 1016.11 1016.54 1016.70 1016.89 1017.01 1017.13 1017.42 1017.57 1017.74 1017.89 1018.07 1018.29 1018.46 1018.69 1018.89 1018.93 1018.94 1018.97 1018.92 1018.95 1019.13 1019.08 1019.00 1019.17 1019.17 1019.18 1019.36
1010.13 1009.86 1009.04 1008.89 1009.01 1009.20 1009.37 1009.66 1010.06 1010.38 1010.91 1011.68 1012.55 1014.16 1015.12 1015.88 1015.77 1015.82 1015.99 1015.98 1015.94 1016.01 1016.20 1016.45 1016.84 1016.90 1017.05 1017.23 1017.44 1017.77 1017.88 1018.03 1018.21 1018.57 1018.62 1018.71 1018.86 1018.98 1019.09 1019.07 1019.07 1019.08 1019.38 1019.26 1019.29 1019.35 1019.52 1019.59 1019.66
1009.78 1009.54 1008.58 1008.28 1008.59 1008.92 1009.24 1009.67 1010.02 1010.39 1010.95 1011.61 1012.63 1013.67 1015.13 1015.92 1015.99 1016.07 1016.02 1016.03 1015.90 1016.15 1016.20 1016.55 1016.81 1016.93 1017.20 1017.38 1017.54 1017.87 1018.00 1018.17 1018.18 1018.58 1018.65 1018.85 1018.97 1019.09 1019.13 1019.19 1019.24 1019.24 1019.43 1019.55 1019.53 1019.57 1019.68 1019.81 1019.95
1009.28 1008.82 1008.40 1008.12 1008.18 1008.37 1008.86 1009.41 1009.66 1010.16 1010.70 1011.19 1012.00 1012.99 1014.79 1015.66 1015.88 1015.93 1015.99 1016.16 1016.00 1016.23 1016.31 1016.51 1016.61 1016.91 1017.31 1017.54 1017.75 1017.85 1018.15 1018.25 1018.33 1018.52 1018.65 1018.99 1019.02 1019.12 1019.15 1019.17 1019.39 1019.43 1019.43 1019.56 1019.65 1019.74 1019.86 1019.97 1020.11
1008.98 1008.38 1007.83 1007.62 1007.54 1008.00 1008.47 1008.86 1009.22 1009.79 1010.58 1011.10 1011.40 1012.39 1014.07 1014.81 1015.28 1015.57 1015.96 1015.92 1016.09 1016.13 1016.38 1016.45 1016.70 1016.82 1017.17 1017.51 1017.83 1017.89 1018.15 1018.32 1018.48 1018.64 1018.76 1018.94 1018.99 1018.95 1019.15 1019.15 1019.33 1019.39 1019.49 1019.55 1019.76 1019.92 1020.02 1020.09 1020.24
1008.64 1007.89 1007.09 1006.88 1006.91 1007.36 1008.08 1008.42 1009.29 1009.93 1010.25 1010.65 1011.21 1011.71 1012.58 1013.66 1014.99 1015.71 1015.79 1015.94 1016.11 1016.31 1016.29 1016.26 1016.58 1016.99 1017.17 1017.48 1017.67 1018.02 1018.17 1018.32 1018.55 1018.73 1018.75 1018.88 1019.05 1018.98 1018.96 1019.18 1019.41 1019.48 1019.58 1019.65 1019.80 1020.04 1020.14 1020.19 1020.29
1007.80 1007.08 1006.61 1006.44 1006.34 1006.67 1007.50 1007.93 1008.59 1009.45 1009.96 1010.35 1011.08 1011.92 1012.72 1013.84 1014.81 1015.33 1015.34 1015.46 1015.78 1016.07 1016.24 1016.33 1016.52 1016.92 1017.19 1017.34 1017.68 1017.84 1017.93 1018.00 1018.40 1018.52 1018.62 1018.86 1019.03 1019.03 1018.90 1019.26 1019.42 1019.54 1019.52 1019.66 1019.87 1020.07 1020.17 1020.19 1020.01
1007.07 1006.52 1006.47 1006.36 1006.07 1006.39 1007.02 1007.68 1008.12 1008.63 1009.32 1009.45 1010.36 1011.54 1012.56 1013.36 1014.01 1014.42 1014.87 1015.15 1015.37 1015.82 1016.14 1016.36 1016.78 1016.89 1017.09 1017.38 1017.56 1017.87 1018.01 1018.13 1018.50 1018.71 1018.80 1018.85 1019.00 1018.97 1018.96 1019.22 1019.57 1019.44 1019.60 1019.61 1019.70 1020.10 1020.22 1020.24 1020.52
1006.80 1006.39 1006.22 1006.16 1006.21 1006.40 1006.68 1007.01 1007.55 1007.69 1007.84 1008.75 1009.82 1010.69 1011.75 1012.76 1013.24 1013.61 1014.10 1014.61 1015.14 1015.56 1015.95 1016.29 1016.49 1017.06 1017.24 1017.39 1017.57 1017.76 1017.99 1018.37 1018.44 1018.58 1018.75 1018.79 1018.75 1018.87 1019.15 1019.19 1019.26 1019.39 1019.58 1019.63 1019.86 1020.03 1020.26 1020.31 1020.54
1006.35 1006.18 1005.91 1005.85 1006.04 1006.10 1006.36 1006.54 1006.72 1007.16 1007.72 1008.37 1009.63 1010.64 1011.38 1012.03 1012.78 1013.28 1013.63 1014.10 1014.65 1015.12 1015.51 1016.01 1016.41 1016.69 1016.90 1017.39 1017.56 1017.71 1017.94 1018.16 1018.24 1018.41 1018.58 1018.78 1018.70 1018.93 1019.22 1019.14 1019.36 1019.43 1019.55 1019.56 1019.83 1020.20 1020.22 1020.35 1020.49
1006.11 1006.00 1005.69 1005.59 1005.75 1005.98 1006.20 1006.34 1006.66 1006.45 1007.32 1008.13 1009.20 1009.95 1010.68 1011.34 1011.88 1012.85 1013.27 1013.62 1014.13 1014.54 1014.82 1015.39 1015.94 1016.32 1016.79 1017.07 1017.45 1017.46 1017.73 1017.89 1018.09 1018.18 1018.45 1018.79 1018.88 1019.11 1018.92 1019.01 1019.11 1019.54 1019.58 1019.53 1019.68 1020.04 1020.58 1020.69 1020.57
1005.68 1005.40 1005.26 1005.35 1005.44 1005.62 1006.01 1006.32 1005.93 1006.02 1006.81 1007.66 1008.52 1009.26 1010.07 1010.72 1011.73 1012.01 1012.61 1013.10 1013.58 1014.09 1014.47 1014.91 1015.44 1015.72 1016.53 1016.74 1017.06 1017.15 1017.43 1017.69 1017.89 1018.00 1018.40 1018.66 1019.04 1019.15 1018.91 1018.61 1018.70 1019.26 1019.42 1019.58 1019.77 1020.11 1020.39 1020.14 1020.20
1005.74 1005.26 1004.91 1004.84 1005.17 1005.29 1005.66 1005.09 1005.36 1006.05 1006.51 1007.29 1008.12 1008.85 1009.57 1010.16 1010.64 1011.63 1012.25 1012.73 1013.22 1013.59 1014.08 1014.63 1014.97 1015.39 1015.90 1016.28 1016.61 1016.88 1017.15 1017.41 1017.67 1017.93 1018.06 1018.45 1018.59 1018.79 1018.82 1018.50 1018.69 1019.08 1019.40 1019.15 1019.42 1019.56 1019.85 1019.79 1019.88
1005.83 1005.18 1004.84 1004.31 1004.56 1004.91 1005.41 1004.74 1005.58 1006.30 1006.62 1007.10 1007.78 1008.24 1008.94 1009.76 1010.52 1011.06 1011.64 1012.18 1012.58 1013.20 1013.77 1014.24 1014.67 1015.01 1015.47 1015.89 1016.31 1016.58 1016.97 1017.31 1017.56 1017.68 1017.79 1018.01 1018.15 1018.43 1018.40 1018.40 1018.67 1019.02 1019.04 1019.08 1019.36 1019.51 1019.64 1019.65 1019.61
1005.38 1005.06 1004.37 1004.25 1004.11 1004.46 1004.89 1004.62 1005.56 1006.26 1006.65 1006.87 1007.33 1007.93 1008.32 1008.84 1009.32 1010.10 1010.78 1011.43 1011.98 1012.67 1013.47 1014.01 1014.27 1014.59 1015.22 1015.72 1016.21 1016.48 1016.81 1016.95 1017.21 1017.34 1017.46 1017.75 1017.86 1018.06 1018.10 1018.14 1018.50 1018.83 1018.77 1018.97 1019.28 1019.56 1019.61 1019.60 1019.52
1005.24 1004.92 1004.33 1003.40 1003.65 1003.95 1003.92 1004.00 1004.30 1005.55 1006.07 1006.50 1006.91 1007.34 1007.63 1007.71 1008.55 1009.62 1010.23 1010.78 1011.58 1012.28 1012.88 1013.38 1013.94 1014.32 1014.94 1015.32 1015.77 1016.07 1016.13 1016.62 1016.93 1017.04 1017.38 1017.50 1017.76 1017.86 1017.98 1017.95 1018.36 1018.63 1018.75 1018.81 1019.23 1019.39 1019.48 1019.40 1019.51
1004.72 1004.32 1003.86 1003.41 1003.20 1003.68 1003.38 1003.19 1003.35 1004.27 1004.62 1005.19 1005.89 1006.50 1006.76 1007.50 1008.10 1008.91 1009.63 1010.25 1010.77 1011.37 1012.04 1012.76 1013.31 1013.86 1014.41 1014.83 1015.11 1015.40 1015.72 1016.24 1016.64 1016.81 1016.90 1017.30 1017.56 1017.70 1017.76 1017.82 1017.99 1018.28 1018.47 1018.80 1019.07 1019.23 1019.19 1019.22 1019.41
1004.12 1003.98 1003.81 1003.97 1003.38 1003.39 1003.29 1002.36 1002.67 1003.14 1003.91 1004.72 1005.63 1005.94 1006.31 1006.61 1007.07 1007.81 1008.59 1009.32 1009.93 1010.63 1011.22 1011.83 1012.57 1013.26 1013.88 1014.36 1014.91 1015.42 1015.70 1016.09 1016.41 1016.66 1016.87 1016.90 1017.24 1017.40 1017.53 1017.70 1017.68 1018.00 1018.29 1018.41 1018.77 1018.93 1019.07 1018.83 1019.26
1003.74 1003.74 1004.02 1004.05 1003.69 1003.47 1003.61 1002.52 1001.95 1002.54 1003.41 1003.99 1004.62 1005.21 1005.54 1006.09 1006.65 1007.03 1007.61 1008.27 1008.96 1009.43 1010.51 1011.23 1012.03 1012.63 1013.35 1013.92 1014.33 1014.51 1014.68 1014.96 1015.27 1015.74 1016.30 1016.70 1016.88 1017.05 1017.19 1017.42 1017.58 1017.70 1017.75 1018.08 1018.37 1018.71 1018.80 1018.89 1018.79
1003.57 1003.85 1004.23 1004.15 1003.92 1003.70 1003.60 1003.00 1001.61 1002.13 1002.47 1002.81 1003.29 1003.90 1004.40 1005.15 1005.82 1005.98 1006.47 1007.09 1007.57 1008.64 1009.53 1010.34 1011.30 1012.03 1012.57 1013.12 1013.41 1013.83 1014.16 1014.42 1014.87 1015.26 1015.86 1016.42 1016.77 1016.59 1016.79 1017.09 1017.34 1017.52 1017.44 1017.84 1018.14 1018.50 1018.76 1018.79 1018.73
1004.21 1004.11 1004.37 1004.52 1004.18 1003.47 1003.47 1003.00 1001.56 1002.00 1002.65 1002.52 1002.54 1002.75 1003.51 1003.96 1004.84 1005.32 1005.80 1006.63 1007.15 1007.82 1008.70 1009.59 1010.52 1011.09 1011.85 1012.56 1013.00 1013.27 1013.48 1014.02 1014.49 1014.87 1015.26 1015.84 1016.12 1016.25 1016.40 1016.61 1016.84 1017.02 1017.12 1017.44 1017.67 1018.09 1018.50 1018.64 1018.75
1004.26 1004.08 1003.97 1003.98 1003.90 1003.40 1003.64 1003.23 1001.84 1002.14 1002.34 1002.51 1002.19 1002.07 1002.53 1003.11 1003.90 1004.71 1005.31 1005.82 1006.67 1007.18 1008.03 1008.96 1009.82 1010.42 1011.11 1011.71 1012.27 1012.70 1012.98 1013.53 1013.90 1014.37 1014.55 1014.93 1015.40 1015.76 1015.99 1016.26 1016.49 1016.70 1016.99 1017.15 1017.27 1017.74 1018.23 1018.58 1018.67
1004.75 1004.54 1004.15 1003.97 1003.97 1003.57 1004.00 1002.89 1001.70 1002.40 1002.64 1002.55 1002.14 1001.79 1002.14 1002.83 1003.39 1003.92 1004.49 1005.07 1005.84 1006.56 1007.44 1008.29 1009.20 1009.77 1010.55 1011.24 1011.58 1012.19 1012.72 1013.00 1013.33 1013.79 1014.00 1014.42 1014.73 1015.14 1015.51 1015.83 1016.00 1016.35 1016.69 1016.85 1017.11 1017.48 1017.85 1018.29 1018.53
1005.32 1005.28 1005.53 1004.93 1005.37 1004.32 1003.68 1003.15 1002.31 1002.40 1002.53 1002.69 1002.43 1002.22 1002.19 1002.28 1002.49 1003.07 1003.83 1004.83 1005.36 1006.39 1006.87 1007.53 1008.37 1009.13 1009.78 1010.37 1011.20 1011.72 1012.28 1012.69 1012.78 1013.16 1013.69 1014.00 1014.36 1014.62 1015.15 1015.40 1015.77 1015.98 1016.36 1016.59 1016.93 1017.15 1017.63 1018.03 1018.35
1005.33 1006.05 1005.81 1005.36 1004.83 1004.17 1003.72 1003.43 1002.86 1002.93 1003.32 1003.49 1003.22 1002.97 1002.82 1002.62 1002.48 1002.72 1003.05 1003.84 1004.76 1005.63 1006.61 1007.40 1007.98 1008.28 1008.70 1009.51 1010.34 1010.87 1011.44 1011.99 1012.39 1012.83 1013.08 1013.28 1013.72 1014.30 1014.70 1015.11 1015.41 1015.73 1016.08 1016.45 1016.83 1017.12 1017.56 1017.92 1018.16
1005.96 1005.82 1006.19 1005.86 1005.52 1004.38 1003.75 1003.23 1003.81 1004.34 1004.81 1004.67 1004.28 1004.14 1003.71 1003.05 1002.71 1002.75 1003.03 1003.64 1004.16 1004.91 1005.63 1006.29 1007.06 1007.79 1008.38 1008.82 1009.38 1010.06 1010.52 1011.20 1011.80 1012.11 1012.41 1012.82 1013.35 1013.82 1014.20 1014.61 1015.10 1015.44 1015.77 1016.27 1016.71 1017.08 1017.49 1017.84 1018.19
1006.73 1006.35 1006.13 1005.46 1005.75 1005.51 1004.93 1003.89 1004.62 1005.09 1005.44 1005.50 1005.13 1004.66 1004.03 1003.46 1002.98 1002.63 1002.82 1003.43 1004.02 1004.78 1005.41 1005.88 1006.33 1007.08 1007.46 1007.98 1008.62 1009.08 1009.94 1010.43 1010.81 1011.23 1011.57 1012.10 1012.52 1013.21 1013.77 1014.26 1014.72 1015.11 1015.56 1016.02 1016.41 1016.79 1017.16 1017.43 1017.68
Wind_Speed
10 7 3 2 1 0 4 4 2 8 5 2 8 5 7 4 3 2 1 4 14 12 13 13 13 16 17 16 15 17 17 16 15 14 12 11 11 11 8 7 6 5 5 6 7 9 9 11 11
8 6 3 2 1 5 4 2 8 6 4 13 12 12 4 3 3 7 6 7 12 14 12 14 13 14 16 16 15 15 15 15 14 13 10 10 9 10 8 6 6 5 4 8 10 11 10 9 10
6 5 1 0 2 5 3 3 8 10 13 6 5 5 3 3 5 6 6 10 11 13 12 13 15 14 15 15 14 14 14 14 13 12 10 7 7 8 7 5 5 6 4 8 11 11 10 10 9
3 2 2 3 7 5 3 7 8 13 9 12 13 9 4 2 4 4 11 11 11 12 12 14 15 15 15 15 13 13 12 11 10 10 9 8 6 7 6 6 5 7 5 7 10 10 10 10 10
0 2 2 4 8 4 5 7 10 9 6 11 8 6 7 8 7 11 10 11 12 12 12 13 13 14 14 14 13 13 12 11 10 9 8 7 7 6 5 4 5 8 6 8 9 11 9 9 8
2 2 2 5 5 6 5 8 8 5 5 10 9 11 5 11 11 5 7 10 12 12 11 12 12 12 13 12 12 9 9 9 9 10 9 7 6 5 5 4 5 5 8 8 9 8 8 7 6
2 1 2 3 3 4 6 9 3 4 7 7 15 9 9 14 10 9 8 9 11 11 11 10 11 10 11 10 10 11 9 9 7 7 8 6 5 5 4 5 4 4 7 8 10 8 8 6 5
2 2 2 2 3 3 10 9 6 3 6 13 16 8 13 19 22 14 10 11 10 11 11 10 10 10 8 8 9 9 9 8 8 8 7 6 6 6 6 5 4 5 5 9 8 8 8 7 4
2 2 2 2 4 6 13 6 5 6 13 5 3 12 21 26 18 14 13 11 10 9 11 11 11 9 8 7 7 7 8 8 7 7 7 6 2 3 4 4 3 3 5 7 8 7 7 6 6
3 2 2 2 3 6 16 11 12 8 12 11 10 13 21 22 18 16 15 13 13 12 12 10 10 10 9 6 6 6 5 4 4 5 4 3 3 2 3 5 6 6 4 5 7 7 7 4 3
1 2 2 3 0 11 15 12 9 15 10 14 17 21 24 24 21 19 17 15 14 13 10 11 9 9 8 5 5 3 3 3 3 4 3 4 3 3 3 2 2 3 3 3 5 5 1 4 2
3 3 1 2 4 8 14 14 10 16 6 16 19 25 26 23 22 21 19 17 14 13 12 10 10 8 8 5 5 5 4 4 4 4 5 3 3 3 2 2 2 2 3 4 3 2 3 4 3
1 2 1 2 1 7 11 14 8 16 9 18 21 24 24 23 21 18 17 15 14 14 13 12 11 9 8 7 5 5 5 5 5 5 5 4 3 2 2 3 2 2 3 4 4 3 1 0 1
3 4 4 2 2 2 8 8 7 12 15 20 23 25 25 24 23 18 17 15 14 14 14 13 12 12 9 9 9 6 5 6 5 4 5 6 3 3 4 3 5 3 3 4 4 3 3 1 6
8 3 2 5 3 3 4 4 13 7 18 20 22 22 24 24 21 22 19 17 16 13 13 14 13 13 12 11 9 7 6 6 5 5 6 5 5 6 6 5 5 3 4 5 4 2 2 5 5
4 4 6 3 6 3 5 4 8 10 17 18 19 19 21 24 25 20 19 17 15 13 14 13 12 14 14 11 8 6 5 6 5 5 4 7 7 7 7 5 3 3 4 4 4 4 3 3 3
3 6 7 7 4 2 6 6 4 7 12 15 17 19 19 20 20 20 19 18 16 15 14 14 13 14 12 10 8 7 7 5 4 4 4 5 7 8 6 4 4 5 5 4 4 3 3 3 3
4 5 8 6 1 5 5 14 3 9 11 14 16 17 18 20 23 21 21 18 16 14 14 13 12 14 13 8 7 6 5 6 5 5 5 6 6 7 6 5 5 6 5 4 4 3 3 3 2
1 4 9 14 6 5 8 12 12 12 13 14 15 17 18 21 19 19 18 18 15 15 15 16 15 13 10 8 8 7 8 6 7 6 7 7 6 8 6 4 6 6 5 5 5 4 4 3 2
2 7 9 13 7 6 5 12 10 14 18 19 19 18 20 17 17 18 18 17 17 17 17 15 16 15 13 10 8 5 6 5 4 4 6 8 7 7 7 6 6 7 6 6 6 5 3 3 3
4 7 7 6 8 4 8 11 2 5 12 14 16 18 18 20 20 19 19 20 18 18 19 17 16 15 13 13 8 5 5 3 5 6 5 7 8 8 7 7 6 7 6 6 7 7 6 3 2
9 3 5 6 4 4 4 6 7 2 1 11 17 19 19 21 19 17 19 21 20 20 16 17 16 16 14 15 11 13 10 9 8 5 6 6 9 9 9 8 7 7 6 6 6 5 5 4 4
6 2 1 2 1 4 1 5 5 7 7 8 12 20 22 21 22 22 22 22 21 18 17 17 16 15 14 15 14 12 11 8 5 5 7 8 7 9 9 9 8 8 6 6 5 6 6 5 3
1 2 4 3 1 3 3 5 7 4 9 12 6 13 21 22 22 21 20 18 17 17 17 16 17 16 16 16 16 15 14 11 8 8 8 8 7 7 9 10 9 8 7 7 7 6 7 5 4
1 1 3 6 3 5 3 4 8 5 10 12 14 8 18 20 20 19 20 19 17 18 18 16 17 16 16 18 17 17 15 14 13 11 8 8 8 8 10 10 8 7 7 8 7 7 7 6 5
3 4 4 7 8 5 1 5 3 1 11 14 11 5 11 17 16 19 20 19 18 19 18 17 16 15 17 17 16 14 14 11 11 11 8 8 9 9 10 10 9 9 9 8 7 6 6 6 5
3 3 2 4 1 4 0 4 9 6 14 16 11 2 9 16 18 19 18 18 17 15 18 18 16 14 15 17 14 15 13 13 12 12 11 9 9 8 10 12 11 11 10 10 9 6 7 6 6
2 5 4 1 4 5 3 4 5 13 16 15 14 10 2 9 13 15 16 17 16 16 14 14 15 17 17 17 16 14 16 15 14 12 12 12 10 11 11 12 13 12 11 10 10 7 7 8 6
1 2 4 2 3 3 4 2 1 8 9 12 11 9 7 4 10 11 11 13 15 15 16 17 16 16 16 16 15 15 15 15 14 13 13 12 11 11 12 13 13 13 12 12 10 9 8 9 7
3 3 2 3 5 0 3 1 4 3 5 6 9 9 8 6 5 8 11 12 13 14 15 16 16 16 15 15 14 16 14 14 15 15 15 13 14 13 13 13 13 13 13 12 12 12 10 11 11
Wind_Direction
174 164 154 197 181 40 52 57 59 115 104 51 128 111 90 43 15 100 101 151 136 142 147 145 136 133 130 124 125 123 126 128 128 126 131 131 126 118 118 116 103 95 87 82 102 113 104 104 103
172 176 219 112 2 69 64 56 112 88 107 101 71 112 99 68 63 114 126 153 143 143 149 142 138 133 131 132 132 130 135 132 131 128 134 134 131 125 128 127 110 90 98 96 108 112 106 105 115
162 237 219 110 45 49 75 113 121 121 145 114 101 54 48 103 117 141 121 141 143 143 148 143 144 140 139 137 136 136 141 140 139 137 143 145 135 123 121 123 117 104 110 116 109 113 111 101 105
204 192 192 55 65 43 85 146 131 138 123 146 124 84 115 150 113 157 143 141 147 149 153 145 147 148 148 142 145 144 146 142 140 142 141 143 149 133 122 122 122 108 125 122 110 114 107 105 101
213 236 103 80 70 75 97 143 147 135 119 135 101 121 98 124 120 137 145 151 152 151 154 152 156 154 155 152 151 159 152 153 153 160 152 158 160 146 123 121 121 107 118 118 117 110 107 104 103
188 286 64 59 76 99 111 149 156 114 138 133 104 113 97 136 136 163 152 155 157 163 160 160 158 166 151 153 148 152 156 167 165 175 164 164 152 143 137 137 122 124 116 120 120 118 111 106 99
273 235 81 108 110 141 151 162 189 124 141 142 141 106 124 150 145 189 198 160 164 168 168 170 166 173 152 161 155 156 169 169 168 181 156 159 162 157 161 143 135 155 131 124 124 129 124 118 110
265 266 129 147 153 100 149 164 144 151 79 122 147 145 158 174 175 184 184 170 171 175 171 173 175 169 163 170 172 167 170 163 178 177 169 167 172 169 165 139 160 160 160 139 133 130 122 116 99
207 220 60 128 173 128 156 144 110 104 136 147 91 146 159 170 165 167 176 175 181 180 177 179 174 173 171 161 164 182 170 178 187 198 186 186 144 183 173 147 182 181 173 134 132 133 126 116 94
234 295 60 342 212 161 165 150 141 140 149 138 93 130 151 158 166 178 180 182 186 184 182 181 180 173 178 173 175 177 173 182 194 202 181 156 145 162 162 189 196 193 177 150 140 140 139 174 92
251 330 38 351 196 156 161 149 147 147 178 171 154 154 159 167 179 183 188 189 187 186 187 187 179 184 184 174 174 180 181 178 190 206 189 143 158 156 157 163 168 187 160 160 169 128 169 129 92
297 27 18 16 138 151 168 156 159 172 178 174 158 161 162 175 182 186 188 189 185 188 193 194 190 184 190 176 194 185 182 193 204 202 204 185 194 187 167 206 222 175 163 158 148 156 147 148 133
224 46 300 339 249 186 167 184 177 201 150 160 157 164 173 177 185 193 193 190 187 193 194 199 192 195 196 189 200 195 197 194 206 204 199 205 200 198 186 191 232 228 202 162 151 151 165 168 261
327 301 259 286 263 198 200 199 185 214 156 154 164 176 179 185 185 190 196 196 196 200 198 198 202 201 200 199 203 198 200 203 214 200 211 205 198 259 245 216 196 194 189 163 159 158 145 334 272
292 312 250 197 163 140 133 162 225 171 175 162 176 179 185 187 188 194 195 198 198 203 199 198 201 201 203 208 206 209 202 204 211 215 211 217 189 216 244 229 183 178 164 168 154 139 168 213 226
327 346 344 138 179 152 189 255 201 177 172 179 177 180 184 187 193 195 196 201 199 202 203 198 196 201 202 206 205 211 211 219 212 220 219 221 211 200 215 210 200 171 175 175 169 185 185 210 224
21 331 336 317 205 143 218 307 128 170 188 178 183 181 186 187 196 198 199 202 199 203 203 204 196 201 205 201 206 213 213 224 226 228 216 208 208 206 206 193 185 179 169 183 180 174 222 208 237
330 332 322 293 355 209 244 277 213 175 193 193 185 187 188 191 198 197 199 203 205 202 203 210 203 201 198 196 200 211 220 229 217 220 207 179 199 210 198 178 171 187 181 166 176 209 207 249 289
204 281 296 299 281 233 238 270 268 196 199 193 200 192 197 200 195 196 202 200 201 203 202 205 205 205 195 196 197 217 222 220 214 210 189 190 206 202 190 177 168 186 189 181 182 203 216 216 217
246 306 303 302 320 232 295 284 277 197 209 201 196 200 203 199 194 200 199 202 200 203 207 206 210 202 202 203 202 209 194 207 198 194 189 192 204 208 191 185 169 179 177 176 187 197 192 213 196
252 270 301 305 322 227 314 292 279 221 222 212 210 211 207 199 196 197 196 203 205 206 205 204 202 201 203 203 186 172 162 154 189 193 191 198 205 205 192 187 179 179 195 187 195 199 210 197 175
272 256 279 275 287 325 350 299 308 37 210 216 209 215 212 205 204 199 199 198 205 211 204 203 200 197 197 191 197 194 203 205 210 193 178 188 198 200 192 187 187 184 192 198 202 198 199 210 197
260 99 79 86 197 279 143 255 291 9 17 338 226 209 214 208 203 198 201 204 206 205 205 205 198 198 197 193 198 197 209 213 199 191 183 184 183 200 191 195 193 195 199 208 200 183 195 193 210
32 118 75 93 183 256 48 279 301 21 336 327 313 222 209 207 208 211 205 202 210 203 203 198 196 197 193 196 200 200 202 200 193 189 189 185 193 195 200 199 195 198 202 200 194 191 193 195 196
155 247 243 249 239 280 32 238 281 308 331 327 314 276 206 204 202 207 208 204 207 202 202 199 195 194 193 196 199 203 202 198 197 193 199 191 196 198 198 201 194 192 200 200 193 185 184 187 191
7 292 252 245 233 253 32 228 252 283 320 324 324 290 188 202 202 205 209 205 203 202 197 195 195 194 193 199 201 201 204 205 207 203 199 201 199 200 193 199 198 198 201 197 191 186 189 183 189
119 216 22 129 166 258 116 259 272 346 2 2 360 48 175 194 199 203 204 211 205 201 197 194 188 194 192 196 197 197 201 210 210 202 200 202 204 199 197 194 199 201 201 198 185 190 189 188 181
360 116 215 188 212 229 189 268 301 343 345 346 5 360 207 215 209 211 206 204 198 197 199 198 198 195 193 197 200 199 201 206 208 201 205 204 199 201 196 201 202 198 197 195 194 188 186 189 188
96 161 68 110 296 253 228 190 95 320 333 327 348 347 335 289 233 220 216 206 200 195 193 195 193 198 197 199 200 203 201 204 207 208 208 208 205 200 203 201 204 203 199 195 195 199 188 195 188
306 359 322 274 170 278 320 169 42 348 349 340 339 348 341 336 302 239 218 207 195 195 196 199 197 197 198 198 195 199 205 205 204 210 210 207 206 201 205 204 205 204 202 196 197 196 195 197 195